Change the Weather History Date:

Friday, September 28, 2012

  Actual Average Record
Temperature  
Mean Temperature 77 °F 76 °F  
Max Temperature 84 °F 87 °F 104 °F (2005)
Min Temperature 70 °F 65 °F 47 °F (1967)
Degree Days  
Heating Degree Days 0 0  
Month to date heating degree days 0 0  
Since 1 July heating degree days 0 0  
Cooling Degree Days 12 11  
Month to date cooling degree days 425 421  
Year to date cooling degree days 3218 2812  
Growing Degree Days 26 (Base 50)    
Moisture  
Dew Point 73 °F    
Average Humidity 83    
Maximum Humidity 100    
Minimum Humidity 65    
Precipitation  
Precipitation 2.19 in 0.10 in 2.19 in (2012)
Month to date precipitation 6.68 2.83  
Year to date precipitation 35.73 23.77  
Snow  
Snow 0.00 in - - ()
Month to date snowfall 0.0  
Since 1 July snowfall 0.0  
Since 1 September snowfall 0.0  
Snow Depth 0.00 in    
Sea Level Pressure  
Sea Level Pressure 29.96 in    
Wind  
Wind Speed 6 mph (East)    
Max Wind Speed 24 mph    
Max Gust Speed 33 mph    
Visibility 6 miles    
Events Rain    
T = Trace of Precipitation, MM = Missing Value Source: NWS Daily Summary

Daily Weather History Graph

Daily Weather History Graph

Search for Another Location

Airport or City:

Trip Planner

Search our weather history database for the weather conditions in past years. The results will help you decide how hot, cold, wet, or windy it might be!

Date:

Astronomy

Sep. 28, 2012 Rise Set
Actual Time 7:25 AM CDT 7:22 PM CDT
Civil Twilight 7:02 AM CDT 7:46 PM CDT
Nautical Twilight 6:34 AM CDT 8:13 PM CDT
Astronomical Twilight 6:06 AM CDT 8:41 PM CDT
Moon 6:24 PM CDT (9/28) 6:01 AM CDT (9/28)
Length of Visible Light 12h 44m
Length of Day
11h 56m
Waxing Gibbous, 98% of the Moon is Illuminated
Sep 28
Waxing Gibbous
Sep 29
Full
Oct 8
Last Quarter
Oct 15
New
Oct 21
First Quarter

Hourly Weather History & Observations

Time (CDT) Temp. Heat Index Dew Point Humidity Pressure Visibility Wind Dir Wind Speed Gust Speed Precip Events Conditions
12:53 AM 73.9 °F - 72.0 °F 93% 30.00 in 10.0 mi East 4.6 mph - 0.00 in   Mostly Cloudy
1:09 AM 73.4 °F - 71.6 °F 94% 30.05 in 10.0 mi ESE 4.6 mph - N/A   Mostly Cloudy
1:53 AM 73.9 °F - 73.0 °F 97% 29.99 in 10.0 mi East 4.6 mph - N/A   Overcast
2:07 AM 73.4 °F - 73.4 °F 100% 30.04 in 10.0 mi ESE 4.6 mph - N/A   Mostly Cloudy
2:53 AM 73.9 °F - 73.0 °F 97% 29.98 in 10.0 mi East 3.5 mph - N/A   Mostly Cloudy
3:22 AM 73.4 °F - 73.4 °F 100% 30.02 in 10.0 mi Calm Calm - N/A   Mostly Cloudy
3:53 AM 73.9 °F - 73.0 °F 97% 29.96 in 10.0 mi ENE 3.5 mph - N/A   Mostly Cloudy
4:53 AM 73.9 °F - 73.9 °F 100% 29.95 in 8.0 mi East 4.6 mph - N/A   Overcast
5:20 AM 73.4 °F - 73.4 °F 100% 30.01 in 6.0 mi ESE 4.6 mph - N/A   Overcast
5:53 AM 73.9 °F - 73.9 °F 100% 29.95 in 6.0 mi East 4.6 mph - N/A   Overcast
6:09 AM 73.4 °F - 73.4 °F 100% 30.01 in 9.0 mi East 4.6 mph - N/A   Overcast
6:53 AM 73.9 °F - 73.9 °F 100% 29.96 in 6.0 mi East 4.6 mph - N/A   Overcast
7:53 AM 73.9 °F - 73.9 °F 100% 29.97 in 4.0 mi East 3.5 mph - N/A   Overcast
8:19 AM 73.4 °F - 73.4 °F 100% 30.02 in 1.5 mi ESE 5.8 mph - N/A   Overcast
8:24 AM 73.4 °F - 73.4 °F 100% 30.02 in 1.2 mi ESE 4.6 mph - N/A   Overcast
8:53 AM 75.0 °F - 73.9 °F 96% 29.98 in 1.2 mi East 4.6 mph - N/A   Overcast
9:06 AM 75.2 °F - 73.4 °F 94% 30.03 in 2.0 mi East 5.8 mph - N/A   Overcast
9:23 AM 75.2 °F - 75.2 °F 100% 30.03 in 4.0 mi East 5.8 mph - N/A   Overcast
9:33 AM 75.2 °F - 75.2 °F 100% 30.04 in 7.0 mi ESE 3.5 mph - N/A   Overcast
9:53 AM 75.9 °F - 75.0 °F 97% 29.99 in 7.0 mi ESE 4.6 mph - N/A   Overcast
10:53 AM 78.1 °F - 73.9 °F 87% 30.00 in 10.0 mi ESE 9.2 mph - N/A   Overcast
11:53 AM 79.0 °F - 73.9 °F 84% 29.99 in 10.0 mi ESE 9.2 mph - N/A   Overcast
12:53 PM 81.0 °F 85.8 °F 73.0 °F 77% 29.97 in 10.0 mi ENE 5.8 mph - N/A   Overcast
1:53 PM 82.9 °F 88.8 °F 73.0 °F 72% 29.93 in 10.0 mi Calm Calm - N/A   Overcast
2:53 PM 82.9 °F 87.5 °F 71.1 °F 67% 29.88 in 10.0 mi Variable 6.9 mph - N/A   Overcast
3:53 PM 84.0 °F 89.0 °F 71.1 °F 65% 29.87 in 10.0 mi East 6.9 mph - N/A   Overcast
4:53 PM 82.9 °F 88.0 °F 72.0 °F 69% 29.86 in 10.0 mi NE 6.9 mph - N/A   Overcast
5:22 PM 82.4 °F 87.2 °F 71.6 °F 70% 29.94 in 10.0 mi ENE 6.9 mph - 0.00 in   Overcast
5:39 PM 75.2 °F - 71.6 °F 89% 29.95 in 2.5 mi SE 23.0 mph 33.4 mph 0.00 in Rain Light Rain
5:43 PM 73.4 °F - 71.6 °F 94% 29.95 in 2.5 mi SE 24.2 mph 29.9 mph 0.00 in Rain Light Rain
5:53 PM 71.1 °F - 71.1 °F 100% 29.90 in 1.5 mi SE 18.4 mph 28.8 mph 0.20 in Rain Heavy Rain
6:27 PM 69.8 °F - 69.8 °F 100% 29.95 in 3.0 mi North 4.6 mph - 0.42 in Rain Heavy Rain
6:37 PM 69.8 °F - 69.8 °F 100% 29.95 in 3.0 mi Calm Calm - 0.48 in Rain Heavy Rain
6:53 PM 70.0 °F - 70.0 °F 100% 29.90 in 3.0 mi NE 4.6 mph - 0.54 in Rain Rain
7:06 PM 71.6 °F - 71.6 °F 100% 29.94 in 3.0 mi NNE 4.6 mph - 0.03 in Rain Rain
7:40 PM 71.6 °F - 71.6 °F 100% 29.95 in 5.0 mi NNE 5.8 mph - 0.10 in Rain Light Rain
7:53 PM 72.0 °F - 72.0 °F 100% 29.90 in 6.0 mi ENE 6.9 mph - 0.13 in Rain Light Rain
8:53 PM 73.0 °F - 73.0 °F 100% 29.90 in 10.0 mi ENE 6.9 mph - 0.08 in Rain Light Rain
9:23 PM 73.4 °F - 73.4 °F 100% 29.96 in 7.0 mi ENE 5.8 mph - 0.01 in Rain Light Rain
9:53 PM 73.0 °F - 73.0 °F 100% 29.93 in 1.5 mi ESE 9.2 mph - 0.19 in Rain Rain
10:23 PM 71.6 °F - 71.6 °F 100% 29.96 in 3.0 mi ENE 10.4 mph - 0.79 in Rain Heavy Rain
10:53 PM 72.0 °F - 72.0 °F 100% 29.92 in 4.0 mi East 5.8 mph - 0.88 in Rain Rain
11:10 PM 71.6 °F - 71.6 °F 100% 29.96 in 5.0 mi ENE 4.6 mph - 0.05 in Rain Light Rain
11:53 PM 72.0 °F - 72.0 °F 100% 29.90 in 7.0 mi ENE 6.9 mph - 0.11 in Rain Light Rain